Tracking 20232 objects as of 22-Jan-2020
HD Live streaming from Space Station
objects crossing your sky now

COSMOS 2251 DEB

Track COSMOS 2251 DEB now!
10-day predictions


NORAD ID: 34445
Int'l Code: 1993-036SN
Perigee: 546.0 km
Apogee: 678.5 km
Inclination: 74.0 °
Period: 96.8 minutes
Semi major axis: 6983 km
RCS: 0.0208 m2 (small)
Launch date: June 16, 1993
Source: Commonwealth of Independent States (former USSR) (CIS)
Launch site: PLESETSK MISSILE AND SPACE COMPLEX (PKMTR)

Note: This is SATELLITE DEBRIS
aabbcc
Your satellite tracking list
Your tracking list is empty




NASA's NSSDC Master Catalog

Two Line Element Set (TLE):
1 34445U 93036SN  20021.43468824 +.00001116 +00000-0 +11689-3 0  9992
2 34445 074.0115 159.2892 0094901 071.0012 344.0269 14.87707871585578
Source of the keplerian elements: AFSPC